IRIDIUM 33 DEB, 34525

Orbit data source: Space-Track

IRIDIUM 33 DEB, 34525 is space debris in LEO originally from a launch on Sun, 14 Sep 1997 UTC launched from the Tyuratam Missile And Space Complex (TTMTR). The debris from Iridium 33, an American commercial communications satellite, has been tracked extensively since its accidental collision with the defunct Russian satellite Cosmos 2251 in 2009. This event, occurring at high speed in low Earth orbit (LEO), generated thousands of pieces of space debris, significantly increasing the risk of further collisions. The Iridium 33 debris cloud has impacted space traffic management and orbital debris mitigation strategies, making it a subject of ongoing study in space situational awareness.

Loading next visibility...
Identifier
34525, 1997-051HS
Orbit
LEO
Country
Flag of USUS
Related business
Manufacturer
Unknown
Mission
Spacecraft
Bus & Motor
Unknown
Mass
Unknown
Launch date (UTC)
1997-09-14 (28 years ago)
Launch vehicle
Unknown
Launch site
Tyuratam Missile And Space Complex (TTMTR)
Object type
Payload
Rocket body
Debris
Shape & HBR
Unknown shape, 0.1 m
Radar Cross Section
Small (<0.1 m²)

Expand to show TLE details & history
Last TLE update: 16 hours ago

TLE from 16 hours ago
0 IRIDIUM 33 DEB
1 34525U 97051HS  26063.32603439  .00001957  00000-0  57707-3 0  9999
2 34525  86.3767  12.0080 0004541 152.8143   1.2284 14.43157181892648
Epoch: 2026-03-04T07:49Z
TLE epoch observation values (Epoch: 2026-03-04T07:49:29.371Z)
Latitude
25.93264°
Longitude
-89.21186°
Altitude
748.138 km
Speed
7.485 km/s
True Right ascension
12h 41m 00s
True Declination
25° 47' 51"
Sunlit
Object was in full shadow at epoch
Visualization orbit readout
Latitude
Unknown
Longitude
Unknown
Altitude
Unknown
Speed
Unknown
Apparent Right ascension
Unknown
Apparent Declination
Unknown
Sunlit
N/A
Visualization observer readout
Local Sidereal Time
03:44:31
Azimuth
Unknown
Elevation
Unknown
Doppler factor
Unknown
Orbital elements
Apogee altitude
748.273 km
Perigee altitude
741.804 km
Semi-major axis
7,123.175 km
Eccentricity
0.00045
Inclination
86.3767°
RAAN
12.008°
Arg. of periapsis
152.8143°
True anomaly
1.22952°
Mean anomaly
1.2284°
Eccentric anomaly
1.22896°
Mean motion
3.61021 °/min
Orbital period
99.72 mins
BSTAR
0.00057707
Loading maneuver chart data...
Computing Atmospheric mass density...
Loading historical data...
Loading historical data...
Loading historical data...
Loading historical data...
Loading historical data...
Loading historical data...
Loading historical data...

Documentation

Showing up to 5 results
|